Flag for Burundi Weather past 2 weeks in Gitega, Burundi

Now
66 °F

Partly sunny.


Feels Like: 66 °F
Forecast: 54 / 77 °F
Wind: No wind

Location: Kigali Airport

Current Time: Jul 23, 2014 at 8:48:08 AM

Latest Report: Jul 23, 2014 at 8:00 AM


Visibility: 5 mi

Pressure: 30.21 "Hg

Humidity: 73%

Dew point: 57 °F

Location of GitegaLocation

Historic Weather in Gitega — Graph

°F

Gitega temperature yesterday

Maximum temperature yesterday: 82 °F (at 2:30 PM)
Minimum temperature yesterday: 64 °F (at 4:30 AM)
Average temperature yesterday: 73 °F

Past Weeks' High & Low Weather Summary

 TemperatureHumidityPressure
High86 °F (Jul 8, 3:00 PM)100% (Jul 19, 4:00 AM)30.30 "Hg (Jul 19, 4:00 AM)
Low55 °F (Jul 19, 4:00 AM)29% (Jul 9, 3:30 PM)30.07 "Hg (Jul 14, 3:00 PM)
Average73 °F57%30.18 "Hg
* Reported Jul 8 7:00 AM — Jul 23 7:30 AM, Gitega, Weather by CustomWeather, © 2014

Note: Actual official high and low records may vary slightly from our data, if they occured in-between our weather recording intervals... More about our weather records

Advertising

Gitega weather history for previous 24 hours

 ConditionsComfort  
Time TempWeatherWind HumidityBarometerVisibility
7:30 AM
Jul 23
64 °FBroken clouds.No wind78%30.21 "Hg5 mi
7:00 AM64 °FScattered clouds.3 mph78%30.18 "HgN/A
6:30 AM64 °FScattered clouds.No wind78%30.18 "HgN/A
6:00 AM64 °FPassing clouds.No wind73%30.15 "HgN/A
5:30 AM63 °FPassing clouds.5 mph83%30.15 "HgN/A
5:00 AM63 °FPassing clouds.5 mph83%30.15 "HgN/A
4:30 AM63 °FPassing clouds.5 mph83%30.12 "HgN/A
4:00 AM64 °FPassing clouds.No wind78%30.12 "HgN/A
3:30 AM64 °FPassing clouds.3 mph78%30.12 "HgN/A
3:00 AM66 °FPassing clouds.No wind73%30.12 "HgN/A
2:00 AM68 °FPassing clouds.No wind69%30.12 "HgN/A
7:00 PM
Jul 22
77 °FPassing clouds.5 mph47%30.12 "HgN/A
6:30 PM77 °FPassing clouds.8 mph44%30.12 "HgN/A
6:00 PM79 °FPassing clouds.3 mph45%30.12 "HgN/A
5:00 PM81 °FPassing clouds.9 mph42%30.09 "HgN/A
4:00 PM81 °FScattered clouds.9 mph42%30.09 "HgN/A
3:30 PM82 °FScattered clouds.9 mph40%30.12 "HgN/A
3:00 PM82 °FScattered clouds.12 mph40%30.12 "HgN/A
2:30 PM82 °FPartly sunny.12 mph40%30.12 "HgN/A
2:00 PM81 °FPartly sunny.7 mph42%30.15 "HgN/A
1:30 PM81 °FPartly sunny.8 mph42%30.18 "HgN/A
1:00 PM79 °FPartly sunny.14 mph45%30.18 "HgN/A
12:30 PM77 °FPartly sunny.7 mph47%30.21 "HgN/A
12:00 PM75 °FPartly sunny.7 mph54%30.24 "HgN/A
11:30 AM75 °FPartly sunny.12 mph57%30.24 "HgN/A
11:00 AM75 °FPartly sunny.12 mph57%30.24 "HgN/A
10:30 AM75 °FPartly sunny.9 mph57%30.27 "HgN/A
10:00 AM75 °FScattered clouds.7 mph61%30.27 "HgN/A
9:30 AM73 °FScattered clouds.7 mph69%30.27 "HgN/A
9:00 AM72 °FScattered clouds.5 mph73%30.27 "HgN/A
8:30 AM70 °FScattered clouds.5 mph83%30.24 "HgN/A
8:00 AM68 °FScattered clouds.5 mph83%30.24 "HgN/A
Weather by CustomWeather, © 2014

See weather overviewHow to use our weather pages